This is the latest recevied weather packets stored in our database for station/object HOWARD. If no packets are shown the sender has not sent any weather packets the latest 10 day(s).
| Time | Temp. | Humidity | Pressure | Rain* | Wind** | Luminosity | Snow |
|---|---|---|---|---|---|---|---|
| 1788193481 | 12.78° C | 37% | 1016 hPa | 0 mm | - | - | - |
| 1788192881 | 13.33° C | 38% | 1016.1 hPa | 0 mm | - | - | - |
| 1788192281 | 12.78° C | 38% | 1016.1 hPa | 0 mm | - | - | - |
| 1788191681 | 12.22° C | 39% | 1016.1 hPa | 0 mm | - | - | - |
| 1788191081 | 12.22° C | 40% | 1016.2 hPa | 0 mm | - | - | - |
| 1788190567 | 11.67° C | 39% | 1016.1 hPa | 0 mm | - | - | - |
| 1788190481 | 11.67° C | 39% | 1016.1 hPa | 0 mm | - | - | - |
| 1788189881 | 11.67° C | 39% | 1016.1 hPa | 0 mm | - | - | - |
| 1788189281 | 11.67° C | 40% | 1016.2 hPa | 0 mm | - | - | - |
| 1788188681 | 12.22° C | 40% | 1016.4 hPa | 0 mm | - | - | - |
| 1788188081 | 11.67° C | 37% | 1016.5 hPa | 0 mm | - | - | - |
| 1788187481 | 11.67° C | 33% | 1016.4 hPa | 0 mm | - | - | - |
| 1788186881 | 11.67° C | 34% | 1015.8 hPa | 0 mm | - | - | - |
| 1788186281 | 11.11° C | 31% | 1015.8 hPa | 0 mm | - | - | - |
| 1788185681 | 11.11° C | 35% | 1015.8 hPa | 0 mm | - | - | - |
| 1788185081 | 11.11° C | 39% | 1015.8 hPa | 0 mm | - | - | - |
| 1788184481 | 10.56° C | 38% | 1015.8 hPa | 0 mm | - | - | - |
| 1788183881 | 10° C | 35% | 1015.9 hPa | 0 mm | - | - | - |
| 1788183281 | 10° C | 31% | 1015.9 hPa | 0 mm | - | - | - |
| 1788182681 | 9.44° C | 37% | 1015.9 hPa | 0 mm | - | - | - |
| 1788182081 | 9.44° C | 39% | 1015.2 hPa | 0 mm | - | - | - |
| 1788181481 | 9.44° C | 37% | 1015.1 hPa | 0 mm | - | - | - |
| 1788180881 | 9.44° C | 33% | 1015.2 hPa | 0 mm | - | - | - |
| 1788180281 | 10° C | 33% | 1015.2 hPa | 0 mm | - | - | - |
| 1788179681 | 10° C | 32% | 1015.3 hPa | 0 mm | - | - | - |
* Rain latest hour (hover to see other rain measurements)
** Current wind speed in m/s (hover to see current wind gust speed)